Regional Weather Roundup
Issued by NWS Sterling, VA

Home | Current Version | Previous Version | Text Only | Print | Product List | Glossary On
Versions: 1 2 3 4 5 6 7 8 9 10 11 12 13 14 15 16 17 18 19 20 21 22 23 24 25 26 27
000
ASUS41 KLWX 281710
RWRLWX

REGIONAL WEATHER ROUNDUP
NATIONAL WEATHER SERVICE BALTIMORE MD/WASHINGTON DC
1200 PM EST TUE FEB 28 2017

Note: "FAIR" indicates few or no clouds below 12,000 feet
with no significant weather and/or obstructions to visibility.
 TC=TEMPERATURE CELSIUS

 * =Non NWS site. Station does not report precipitation (e.g. rain,
    snow, etc.), thunder, or fog.

DCZ001-MDZ009-015-VAZ040>042-051-053>054-281800-
WASHINGTON METRO

CITY           SKY/WX    TMP DP  RH WIND       PRES   REMARKS
WASHINGTON NAT PTSUNNY   63  46  54 S9        30.25F
DULLES         PTSUNNY   64  38  38 S8        30.24F
ANDREWS AFB    MOSUNNY   67  47  49 S7        30.23F
FT BELVOIR     MOSUNNY   64  44  46 SE7       30.24F
QUANTICO       PTSUNNY   61  46  57 SW7       30.26F
COLLEGE PARK*  MOSUNNY   63  43  48 S3        30.24F
LEESBURG*      SUNNY     63  39  42 MISG      30.23F
MANASSAS*      CLOUDY    65  43  44 S6        30.24F
GAITHERSBURG*  SUNNY     64  39  39 S6        30.27F

$$

MDZ006>007-011-014-281800-
BALTIMORE METRO

CITY           SKY/WX    TMP DP  RH WIND       PRES   REMARKS
BWI AIRPORT    PTSUNNY   64  45  49 VRB6      30.24F
MD SCIENCE CTR   N/A     60  42  51 MISG      30.28F
MARTIN STATE   PTSUNNY   57  46  67 SE8       30.29F
ANNAPOLIS      MOSUNNY   51  46  83 SE10      30.27F
FORT MEADE*    MOSUNNY   64  45  48 SW6       30.26F

$$

MDZ012-015-019>023-281800-
MARYLAND EASTERN SHORE

CITY           SKY/WX    TMP DP  RH WIND       PRES   REMARKS
OCEAN CITY     MOSUNNY   60  52  74 S7        30.30F
SALISBURY      MOSUNNY   69  54  58 S12       30.27F
BAY BRIDGE AP* MOSUNNY   63  46  55 S7        30.27F
CAMBRIDGE*     SUNNY     66  52  59 S6G13     30.27F
EASTON*        PTSUNNY   64  48  55 SW7       30.31F

$$

MDZ017>025-281800-
SOUTHERN MARYLAND

CITY           SKY/WX    TMP DP  RH WIND       PRES   REMARKS
PATUXENT RIVER MOSUNNY   56  50  80 E10       30.27F
ST INIGOES     SUNNY     65  51  60 W3        30.26F
LEONARDTOWN*   SUNNY     64  50  59 SW3       30.27F

$$

MDZ003>005-281800-
NORTH CENTRAL MARYLAND

CITY           SKY/WX    TMP DP  RH WIND       PRES   REMARKS
FREDERICK*     SUNNY     63  36  36 CALM      30.25F
HAGERSTOWN APT MOSUNNY   60  32  34 SW6       30.21F
WESTMINSTER*   MOSUNNY   64  37  36 S5        30.23F

$$

MDZ501>502-281800-
WESTERN MARYLAND

CITY           SKY/WX    TMP DP  RH WIND       PRES   REMARKS
OAKLAND*       CLOUDY    52  34  50 S8        30.16F
CUMBERLAND*    CLOUDY    52  36  54 CALM      30.25S

$$

VAZ025>031-281800-
SHENANDOAH VALLEY

CITY           SKY/WX    TMP DP  RH WIND       PRES   REMARKS
WINCHESTER*    PTSUNNY   63  37  39 SW5       30.20F
FRONT ROYAL*   MOSUNNY   63  37  39 CALM      30.20F
LURAY*         CLOUDY    59  41  51 W6        30.20F
NEW MARKET*    CLOUDY    59  33  36 SW6       30.21F
STAUNTON*      CLOUDY    59  38  46 SW3       30.23F
WAYNESBORO*    CLOUDY    61  35  37 E3        30.22F

$$

WVZ021-048>050-054>055-281800-
EASTERN WEST VIRGINIA PANHANDLE

CITY           SKY/WX    TMP DP  RH WIND       PRES   REMARKS
MARTINSBURG    MOSUNNY   61  32  33 SE6       30.21F
PETERSBURG*    CLOUDY    58  38  48 CALM      30.20F

$$

VAZ036>039-050-281800-
CENTRAL FOOTHILLS

CITY           SKY/WX    TMP DP  RH WIND       PRES   REMARKS
CHARLOTTESVILL MOSUNNY   66  37  34 SE9       30.23F
CULPEPER*      CLOUDY    65  41  41 S5        30.24F
ORANGE*        MOSUNNY   66  43  42 S13       30.25F
GORDONSVILLE*  CLOUDY    65  42  43 S5        30.23F
WARRENTON*     PTSUNNY   67  36  32 SW6       30.23F

$$

VAZ055>057-281800-
NORTH AND CENTRAL PIEDMONT

CITY           SKY/WX    TMP DP  RH WIND       PRES   REMARKS
FREDERICKSBRG* SUNNY     67  50  52 SW8       30.24F
STAFFORD*      SUNNY     66  47  49 CALM      30.28F

$$

NCZ024-NYZ072-PAZ021-071-VAZ022-071-281800-
OTHER REGIONAL OBSERVATIONS

CITY           SKY/WX    TMP DP  RH WIND       PRES   REMARKS
NEW YORK CITY  SUNNY     56  38  50 MISG      30.32F
PHILADELPHIA   CLOUDY    61  44  53 VRB3      30.28F
PITTSBURGH     CLOUDY    53  39  59 SE8       30.10F
ROANOKE        CLOUDY    59  34  39 VRB3      30.25F
RICHMOND       PTSUNNY   68  52  56 SW6       30.25F
RALEIGH        PTSUNNY   73  56  54 S10       30.26F

$$

ANZ530>537-281800-
MARINE OBSERVATIONS

STATION/POSITION TIME  TEMP    WIND        PRES
                       AIR SEA DIR/SP/G
                 (UTC) (F)     (DEG/KT/KT) (MB)
THOMAS PT LIGHT  1700   51 45  160/  8/  8   N/A
BALT KEY BRIDGE  1648   51     120/  8/  9 1024.9F
COVE POINT       1642   51     180/ 12/ 12 1025.7F
LEWISETTA        1648   50 49  120/  9/ 10 1024.9F
SOLOMONS ISLAND  1642   53 46   90/ 11/ 11   N/A
PINEY POINT      1648          140/  5/  6   N/A

$$





USA.gov is the U.S. government's official web portal to all federal, state and local government web resources and services.